Regional Weather Roundup
Issued by NWS

Home | Current Version | Previous Version | Graphics & Text | Print | Product List | Glossary On
Versions: 1 2 3 4 5 6 7 8 9 10 11 12 13 14 15 16 17 18 19 20 21 22 23 24 25 26 27 28 29 30 31 32 33 34 35 36 37 38 39 40 41 42 43 44 45 46 47 48 49 50
417
ASUS44 KJAN 251803
RWRMS

MISSISSIPPI HOURLY WEATHER ROUNDUP
NATIONAL WEATHER SERVICE JACKSON MS
100 PM CDT SAT OCT 25 2014

NOTE: "FAIR: INDICATES FEW OR NO CLOUDS BELOW 12,000 FEET WITH NO
SIGNIFICANT WEATHER AND/OR OBSTRUCTIONS TO VISIBILITY.

MSZ001>002-007>008-010>013-018>021-025>028-034>036-251900-
NORTHWEST MISSISSIPPI

CITY           SKY/WX    TMP DP  RH WIND       PRES   REMARKS
CLARKSDALE     FAIR      79  63  57 W9        30.09F
CLEVELAND      FAIR      79  63  58 W9        30.10F
GREENWOOD      SUNNY     78  59  51 W6        30.11F
6HR MIN TEMP:  48; 6HR MAX TEMP:  78;

GREENVILLE     SUNNY     79  59  50 W10       30.11F
6HR MIN TEMP:  53; 6HR MAX TEMP:  79;

GRENADA          N/A    N/A N/A N/A MISG        N/A
OLIVE BRANCH   MOSUNNY   75  64  69 W7        30.07F
OXFORD         FAIR      75  59  57 W12       30.10F
TUNICA         CLEAR     79  61  53 SW8       30.08F
$$

MSZ003>006-009-014>017-022>024-029>033-037>039-251900-
NORTHEAST MISSISSIPPI

CITY           SKY/WX    TMP DP  RH WIND       PRES   REMARKS
COLUMBUS AFB   SUNNY     77  58  51 W6        30.09F
6HR MIN TEMP:  44; 6HR MAX TEMP:  77;

CORINTH        FAIR      79  61  53 CALM      30.05F
GOLDN TRIANGLE SUNNY     79  57  47 NW7       30.09F
STARKVILLE     FAIR      77  59  53 NW3       30.10F
TUPELO         SUNNY     79  59  50 VRB5      30.08F
6HR MIN TEMP:  50; 6HR MAX TEMP:  79;

$$

MSZ040-058-251900-
CENTRAL MISSISSIPPI

CITY           SKY/WX    TMP DP  RH WIND       PRES   REMARKS
JACKSON INTL   SUNNY     77  57  50 VRB6      30.13F
6HR MIN TEMP:  45; 6HR MAX TEMP:  77;

JACKSON HAWKNS SUNNY     76  58  53 W9        30.13F
6HR MIN TEMP:  48; 6HR MAX TEMP:  76;

MERIDIAN KEY   SUNNY     77  56  48 N6        30.11F
6HR MIN TEMP:  43; 6HR MAX TEMP:  77;

MERIDIAN NAS   SUNNY     77  56  48 N7        30.12F
6HR MIN TEMP:  46; 6HR MAX TEMP:  77;

RAYMOND        FAIR      75  72  88 N5        30.14F
VICKSBURG      SUNNY     78  57  48 VRB3      30.14F
6HR MIN TEMP:  43; 6HR MAX TEMP:  78;

$$

MSZ059>079-251900-
SOUTH MISSISSIPPI

CITY           SKY/WX    TMP DP  RH WIND       PRES   REMARKS
BROOKHAVEN     FAIR      75  57  53 N7        30.16F
COLUMBIA       FAIR      77  55  47 MISG        N/A
HATTIESBURG    SUNNY     76  56  49 VRB3      30.13F
6HR MIN TEMP:  45; 6HR MAX TEMP:  76;

MCCOMB         SUNNY     76  54  46 N9        30.14F
6HR MIN TEMP:  48; 6HR MAX TEMP:  77;

NATCHEZ        SUNNY     75  57  53 SW3       30.15F
6HR MIN TEMP:  45; 6HR MAX TEMP:  75;

PINE BELT      SUNNY     79  55  44 NW7       30.14F
6HR MIN TEMP:  45; 6HR MAX TEMP:  79;

$$

MSZ080>082-251900-
COASTAL MISSISSIPPI

CITY           SKY/WX    TMP DP  RH WIND       PRES   REMARKS
BAY ST LOUIS   SUNNY     77  48  36 N6        30.12F
BILOXI         SUNNY     77  54  44 NE6       30.10F
6HR MIN TEMP:  53; 6HR MAX TEMP:  77;

PASCAGOULA     SUNNY     77  53  43 NE12G21   30.10F
6HR MIN TEMP:  41; 6HR MAX TEMP:  77;

GULFPORT       SUNNY     77  53  43 NW8       30.10F
6HR MIN TEMP:  48; 6HR MAX TEMP:  77;

$$



USA.gov is the U.S. government's official web portal to all federal, state and local government web resources and services.